Location: Coopersdale
(40.3556°N, 78.9372°W)
Time: 07:36:16
(UTC+00:00)

Tiros 1 despin weight - Pass Details

Date: 20 June 2021
Orbit: 593 x 642 km, 48.2° (Epoch: 04 August)

Event Time Altitude Azimuth Distance (km) Brightness Sun altitude
Exits shadow 08:48:47 - 180° (S) 2,627 ? -9.5°
Reaches altitude 10° 08:51:47 10° 153° (SSE) 1,923 ? -9.1°
Maximum altitude 08:53:27 12° 131° (SE) 1,795 ? -8.8°
Drops below altitude 10° 08:55:07 10° 108° (ESE) 1,921 ? -8.6°
Sets 08:58:45 0° 77° (ENE) 2,824 ? -8.1°
